Airfield :
LOGIN :

Register | Disclaimer

   EN    FR    IT 

 










Legend :    VFR   Marginal VFR   IFR   Intensive IFR   Very Intensive IFR
Visi :
Ceiling :
>= 8 km
>= 3000ft
5 to 8 km
1000 to 3000 ft
1500m to 5 km
500 to 1000 ft
800 to 1500m
200 to 500 ft
< 800m
< 200 ft
Symbols :   Thunderstorms  Fog  Heavy snow  Heavy precipitations  Wind > 20 kt
SIGMETs :     Misc.  Thunderstorms  Icing  Turbulence  Mountain Waves  Volcanic Ashes






- Airport Elevation : 113 ft


EKRS - Ringsted

CURRENT METAR :
  • 270750Z AUTO 06005KT 340V130 9999 OVC045/// 03/03 Q0992

EXPIRED METARs :
  • 270720Z AUTO VRB05KT 9999 SCT038/// OVC050/// 03/03 Q0992
  • 270650Z AUTO 06004KT 340V140 9999 BKN034/// BKN043/// 03/03 Q0992
  • 270620Z AUTO VRB03KT 9999 SCT039/// 03/03 Q0992
  • 270550Z AUTO 09004KT 330V140 9999 NCD 03/03 Q0991
  • 270520Z AUTO 09005KT 020V160 9999 NCD 03/03 Q0991

TAF N/A



MET'MAP, your aeronautical weather chart ! - Copyright ORBIFLY December 2007 - Disclaimer

ORBIFLY MET'MAP TEAM :

Programming & Development : Alexandra Zaïnal
Concept & original design : Baudouin d'Aumeries
Assistance for programming : Marc-Olivier Méhu
Technical & hardware support : Manuel Goepfert

Contact : metmap@orbifly.com




SOURCES & CREDITS :

   NOAA